Directory: /courses/chemistry/

Parent Directory
5-04-principles-of-inorganic-chemistry-ii-fall-2008/ 4096 bytes 08/02/2019 9:17:29
5-05-principles-of-inorganic-chemistry-iii-spring-2005/ 4096 bytes 08/02/2019 9:17:29
5-067-crystal-structure-refinement-fall-2009/ 4096 bytes 08/02/2019 9:17:29
5-069-crystal-structure-analysis-spring-2010/ 4096 bytes 08/02/2019 9:17:29
5-07sc-biological-chemistry-i-fall-2013/ 4096 bytes 08/02/2019 9:17:29
5-08j-biological-chemistry-ii-spring-2004/ 4096 bytes 08/02/2019 9:17:29
5-111-principles-of-chemical-science-fall-2008/ 4096 bytes 08/02/2019 9:17:29
5-111sc-principles-of-chemical-science-fall-2014/ 4096 bytes 08/02/2019 9:17:29
5-112-principles-of-chemical-science-fall-2005/ 4096 bytes 08/02/2019 9:17:29
5-12-organic-chemistry-i-spring-2003/ 4096 bytes 08/02/2019 9:17:29
5-12-organic-chemistry-i-spring-2005/ 4096 bytes 08/02/2019 9:17:29
5-13-organic-chemistry-ii-fall-2003/ 4096 bytes 08/02/2019 9:17:29
5-13-organic-chemistry-ii-fall-2006/ 4096 bytes 08/02/2019 9:17:29
5-301-chemistry-laboratory-techniques-january-iap-2012/ 4096 bytes 08/02/2019 9:17:29
5-302-introduction-to-experimental-chemistry-january-iap-2005/ 4096 bytes 08/02/2019 9:17:29
5-310-laboratory-chemistry-fall-2017/ 4096 bytes 08/02/2019 9:17:29
5-311-introductory-chemical-experimentation-fall-2005/ 4096 bytes 08/02/2019 9:17:29
5-32-intermediate-chemical-experimentation-spring-2003/ 4096 bytes 08/02/2019 9:17:29
5-33-advanced-chemical-experimentation-and-instrumentation-fall-2007/ 4096 bytes 08/02/2019 9:17:29
5-35-introduction-to-experimental-chemistry-fall-2012/ 4096 bytes 08/02/2019 9:17:29
5-36-biochemistry-laboratory-spring-2009/ 4096 bytes 08/02/2019 9:17:29
5-37-introduction-to-organic-synthesis-laboratory-spring-2009/ 4096 bytes 08/02/2019 9:17:29
5-43-advanced-organic-chemistry-spring-2007/ 4096 bytes 08/02/2019 9:17:29
5-44-organometallic-chemistry-fall-2004/ 4096 bytes 08/02/2019 9:17:29
5-451-chemistry-of-biomolecules-i-fall-2005/ 4096 bytes 08/02/2019 9:17:29
5-46-organic-structure-determination-spring-2007/ 4096 bytes 08/02/2019 9:17:29
5-512-synthetic-organic-chemistry-ii-spring-2005/ 4096 bytes 08/02/2019 9:17:29
5-60-thermodynamics-kinetics-spring-2008/ 4096 bytes 08/02/2019 9:17:29
5-61-physical-chemistry-fall-2007/ 4096 bytes 08/02/2019 9:17:29
5-61-physical-chemistry-fall-2013/ 4096 bytes 08/02/2019 9:17:29
5-62-physical-chemistry-ii-spring-2008/ 4096 bytes 08/02/2019 9:17:29
5-68j-kinetics-of-chemical-reactions-spring-2003/ 4096 bytes 08/02/2019 9:17:29
5-72-statistical-mechanics-spring-2012/ 4096 bytes 08/02/2019 9:17:29
5-73-introductory-quantum-mechanics-i-fall-2002/ 4096 bytes 08/02/2019 9:17:29
5-73-introductory-quantum-mechanics-i-fall-2005/ 4096 bytes 08/02/2019 9:17:29
5-74-introductory-quantum-mechanics-ii-spring-2004/ 4096 bytes 08/02/2019 9:17:29
5-74-introductory-quantum-mechanics-ii-spring-2009/ 4096 bytes 08/02/2019 9:17:29
5-80-small-molecule-spectroscopy-and-dynamics-fall-2008/ 4096 bytes 08/02/2019 9:17:29
5-92-energy-environment-and-society-spring-2007/ 4096 bytes 08/02/2019 9:17:29
5-95j-teaching-college-level-science-and-engineering-fall-2015/ 4096 bytes 08/02/2019 9:17:29
5-95j-teaching-college-level-science-and-engineering-spring-2009/ 4096 bytes 08/02/2019 9:17:29
5-s16-advanced-kitchen-chemistry-spring-2002/ 4096 bytes 08/02/2019 9:17:29
archived-chemistry-courses/ 4096 bytes 31/08/2018 12:44:32